Regional Weather Roundup
Issued by NWS

Home | Current Version | Previous Version | Graphics & Text | Print | Product List | Glossary On
Versions: 1 2 3 4 5 6 7 8 9 10 11 12 13 14 15 16 17 18 19 20 21 22 23 24 25 26 27 28 29 30 31 32 33 34 35 36 37 38 39 40 41 42 43 44 45 46 47 48 49 50
000
ASUS43 KLOT 290708
RWRIL

ILLINOIS REGIONAL WEATHER ROUNDUP
NATIONAL WEATHER SERVICE CHICAGO/ROMEOVILLE IL
200 AM CDT SAT APR 29 2017

NOTE: "FAIR" INDICATES FEW OR NO CLOUDS BELOW 12,000 FEET WITH NO
SIGNIFICANT WEATHER AND/OR OBSTRUCTIONS TO VISIBILITY.

* THESE STATIONS ARE NOT UNDER NWS QUALITY CONTROL. THEY ALSO MAY NOT
  REPORT WEATHER SUCH AS PRECIPITATION OR FOG.

ILZ001-002-007-009-015-016-024-290800-
NORTHWEST ILLINOIS

CITY           SKY/WX    TMP DP  RH WIND       PRES   REMARKS
MOLINE         CLOUDY    48  44  86 NE9       30.01R FOG
STERLING*      CLOUDY    47  44  90 NE13      30.02R
SAVANNA*       CLOUDY    45  42  87 NE7       30.02R
$$

ILZ003-004-008-010-011-017-018-290800-
NORTH CENTRAL ILLINOIS

CITY           SKY/WX    TMP DP  RH WIND       PRES   REMARKS
ROCKFORD       CLOUDY    48  41  76 NE12      30.05R
FREEPORT*      CLOUDY    44  41  87 N13       30.05R
ROCHELLE*      CLOUDY    46  45  95 NE15      30.03R FOG
DE KALB*       CLOUDY    47  44  88 NE15      30.02R
PERU*          CLOUDY    49  43  79 E16       30.00R
$$

ILZ005-006-012>014-019>023-290800-
NORTHEAST ILLINOIS

CITY           SKY/WX    TMP DP  RH WIND       PRES   REMARKS
CHICAGO-OHARE  CLOUDY    46  39  76 NE14      30.04R
CHICAGO-MIDWAY CLOUDY    47  41  80 NE13      30.04R
AURORA         CLOUDY    49  42  77 E15       30.04R
LANSING*       CLOUDY    46  42  84 NE9G18    30.03R
JOLIET*        CLOUDY    48  41  75 NE10G18   30.02R
WAUKEGAN       CLOUDY    43  40  89 NE12G20   30.03R
DUPAGE AIRPORT CLOUDY    46  43  89 NE18      30.02R
KANKAKEE*      CLOUDY    49  41  74 N15G22    29.96F
WHEELING       CLOUDY    44  41  89 NE8       30.05R
MORRIS*        CLOUDY    47  39  73 NE5       30.01R
ROMEOVILLE*    CLOUDY    46  43  88 NE18G24   30.00R
NORTHERLY ISL    N/A     45  40  82 N14         N/A
$$

LMZ740>746-290800-
SOUTHERN LAKE MICHIGAN

STATION/POSITION SKY/WX   TEMP    WIND        PRES    VSBY  WAVE
                          AIR SEA DIR/SP/G                  HT/PER
                          (F)     (DEG/KT/KT) (MB)    (MI)  (FT/S)
SOUTHERN BUOY              43 41   20/ 14/ 16 1017.2          2/ 4
HARRISON CRIB              45      20/ 17/ 19   N/A
BURNHAM HARBOR             45      20/ 10/ 20   N/A
CALUMET HARBOR             45      10/ 11/ 16 1016.6R
BURNS HARBOR               47      60/ 14/ 17 1016.9R
MICHIGAN CITY              45      40/ 15/ 17   N/A
MICHIGAN CITY 6N           45 47                N/A           4/ 3
ST. JOSEPH                 48 48   60/ 16/ 19 1017.0          4/ 4
$$

ILZ025>027-034>036-040-047-049-050-058-095>099-290800-
WEST-CENTRAL ILLINOIS

CITY           SKY/WX    TMP DP  RH WIND       PRES   REMARKS
QUINCY         CLOUDY    52  52 100 N15       29.90S FOG
GALESBURG*     CLOUDY    47  47  97 N16       29.96S
MACOMB*        CLOUDY    50  49  98 N15       29.96F FOG
JACKSONVILLE*  CLOUDY    55  54  96 N6        29.91R
PITTSFIELD*    CLOUDY    56  56  99 NE6       29.90S FOG
$$

ILZ028>032-037-038-041>044-048-051>054-059>061-290800-
CENTRAL ILLINOIS

CITY           SKY/WX    TMP DP  RH WIND       PRES   REMARKS
PONTIAC        CLOUDY    52  50  94 NE22      29.96F FOG
BLOOMINGTON    CLOUDY    53  52  96 NE9       29.93F FOG
DECATUR        CLOUDY    55  55 100 NE10      29.89F
PEORIA         CLOUDY    56  54  93 NE8       29.95R
LACON*         CLOUDY    51  48  89 NE9       29.97R FOG
LINCOLN*       CLOUDY    56  56  99 CALM      29.92R FOG
SPRINGFIELD    CLOUDY    57  54  89 NE9       29.90F
TAYLORVILLE    CLOUDY    55  55  98 E5        29.91R
$$

ILZ033-039-045-046-055>057-062-063-290800-
EAST-CENTRAL ILLINOIS

CITY           SKY/WX    TMP DP  RH WIND       PRES   REMARKS
CHAMPAIGN      CLOUDY    56  53  90 NE10      29.90F FOG
RANTOUL*       CLOUDY    56  55  97 NE8       29.92R FOG
MATTOON        TSTM      55  55 100 SE3       29.92R FOG
PARIS*         CLOUDY    55  55  99 N5        29.90S THUNDER FOG
$$

ILZ079-100>102-290800-
SOUTHWEST ILLINOIS

CITY           SKY/WX    TMP DP  RH WIND       PRES   REMARKS
ALTON          CLOUDY    56  55  98 E6        29.86F THUNDER FOG
BELLEVILLE     LGT RAIN  57  57 100 NE7       29.81F FOG
CAHOKIA*       LGT RAIN  58  56  93 CALM      29.88R FOG
SPARTA*        TSTM      59  57  94 NE8       29.86F
$$

ILZ064>066-069>071-074>076-080>082-084>086-088>090-092>094-290800-
SOUTH-CENTRAL ILLINOIS

CITY           SKY/WX    TMP DP  RH WIND       PRES   REMARKS
CARBONDALE     LGT RAIN  63  63 100 N6        29.84R FOG
CAIRO*         CLOUDY    71  69  95 CALM      29.80F
EFFINGHAM*     CLOUDY    57  57 100 CALM      29.93R
MARION         LGT RAIN  64  64 100 N3        29.83F
MT. VERNON     TSTM      59  58  96 NE6       29.87R FOG
CENTRALIA*     CLOUDY    59  59 100 NE3       29.87F
SALEM*         TSTM      59  57  94 E7        29.84F
METROPOLIS*    CLOUDY    73  69  89 E3        29.83S
$$

ILZ067-068-072-073-078-083-087-091-290800-
SOUTHEAST ILLINOIS

CITY           SKY/WX    TMP DP  RH WIND       PRES   REMARKS
LAWRENCEVILLE  CLOUDY    60  59  96 S6        29.89R FOG
FLORA*         LGT RAIN  59  58  97 CALM      29.90R
FAIRFIELD*     CLOUDY    59  59 100 N5        29.85F FOG
HARRISBURG*    CLOUDY    64  64 100 NE5       29.86S THUNDER FOG
ROBINSON*      CLOUDY    57  57 100 S3        29.90R FOG
CARMI*         TSTM      63  63 100 NE8       29.86F
$$

ABBREVIATIONS USED IN REMARKS
   TC - TEMPERATURE IN CELSIUS
  WCI - WIND CHILL INDEX
   HX - HEAT INDEX
  VSB - VISIBILITY
$$




USA.gov is the U.S. government's official web portal to all federal, state and local government web resources and services.